Location: Moscow
(55.7500°N, 37.5830°E)
Time: 00:48:09
(UTC+03:00)

Explorer 7 - Pass Details

Date: 30 November 2021
Orbit: 483 x 674 km, 50.3° (Epoch: 17 January)

Event Time Altitude Azimuth Distance (km) Brightness Sun altitude
Rises 13:01:57 0° 271° (W) 2,600 10.4 12.0°
Reaches altitude 10° 13:04:50 10° 249° (WSW) 1,689 9.8 11.9°
Maximum altitude 13:07:09 16° 211° (SSW) 1,359 10.5 11.8°
Drops below altitude 10° 13:09:26 10° 173° (S) 1,663 11.0 11.8°
Sets 13:12:14 0° 151° (SSE) 2,536 11.0 11.7°
